GW1622 Weather Reports


Display with metric or nautical units.
time (UTC)temp
F
wind
direction
speed
MPH
gust
MPH
rain 1hr
in
rain 24hr
in
rain mn
in
humidity
%
barometer
mb
20260506185516 68 31 2.0 8.0 0.00 0.00 0.00 71 1018.6
20260506185018 68 352 1.0 8.0 0.00 0.00 0.00 72 1018.6
20260506184533 67 24 2.0 7.0 0.00 0.00 0.00 70 1018.7
20260506184016 68 35 1.0 8.0 0.00 0.00 0.00 70 1018.9
20260506183518 67 317 1.0 8.0 0.00 0.00 0.00 71 1018.8
20260506183035 67 49 2.0 8.0 0.00 0.00 0.00 69 1018.8
20260506182514 67 334 1.0 8.0 0.00 0.00 0.00 72 1018.8
20260506182020 67 302 2.0 7.0 0.00 0.00 0.00 71 1018.9
20260506181532 67 351 2.0 7.0 0.00 0.00 0.00 72 1018.9
20260506181016 67 325 2.0 6.0 0.00 0.00 0.00 71 1018.9
20260506180518 67 86 2.0 5.0 0.00 0.00 0.00 71 1019.0
20260506180039 66 91 1.0 6.0 0.00 0.00 0.00 72 1019.0
20260506175517 67 171 1.0 6.0 0.00 0.00 0.00 68 1018.9
20260506175017 66 103 2.0 6.0 0.00 0.00 0.00 71 1018.9
20260506174535 66 0 2.0 6.0 0.00 0.00 0.00 71 1019.1
20260506174016 67 80 1.0 6.0 0.00 0.00 0.00 70 1019.1
20260506173515 66 26 1.0 8.0 0.00 0.00 0.00 72 1019.2
20260506173032 67 74 2.0 8.0 0.00 0.00 0.00 70 1019.2
20260506172517 67 325 2.0 6.0 0.00 0.00 0.00 71 1019.1
20260506172017 65 172 1.0 8.0 0.00 0.00 0.00 72 1019.3
20260506171545 66 0 2.0 8.0 0.00 0.00 0.00 71 1019.3
20260506171017 66 45 2.0 8.0 0.00 0.00 0.00 73 1019.3
20260506170514 66 23 3.0 8.0 0.00 0.00 0.00 72 1019.3
20260506170038 66 96 1.0 6.0 0.00 0.00 0.00 71 1019.3
20260506165516 65 86 1.0 8.0 0.00 0.00 0.00 74 1019.3
20260506165016 65 246 2.0 8.0 0.00 0.00 0.00 71 1019.3
20260506164535 66 0 1.0 6.0 0.00 0.00 0.00 71 1019.3
20260506164016 65 57 1.0 6.0 0.00 0.00 0.00 73 1019.3
20260506163517 65 13 2.0 6.0 0.00 0.00 0.00 71 1019.3
20260506163036 66 279 0.0 4.0 0.00 0.00 0.00 72 1019.2
20260506162515 65 335 1.0 4.0 0.00 0.00 0.00 73 1019.2
20260506162015 66 45 1.0 4.0 0.00 0.00 0.00 73 1019.2
20260506161536 66 0 1.0 6.0 0.00 0.00 0.00 73 1019.2
20260506161016 64 57 0.0 6.0 0.00 0.00 0.00 75 1019.2
20260506160517 64 55 1.0 3.0 0.00 0.00 0.00 73 1019.1
20260506160039 63 90 1.0 4.0 0.00 0.00 0.00 73 1019.2
20260506155515 64 0 1.0 4.0 0.00 0.00 0.00 74 1019.3
20260506155015 63 45 1.0 3.0 0.00 0.00 0.00 73 1019.3
20260506154538 63 9 0.0 3.0 0.00 0.00 0.00 76 1019.2
20260506154015 64 0 1.0 4.0 0.00 0.00 0.00 75 1019.3
20260506153516 62 332 1.0 4.0 0.00 0.00 0.00 77 1019.2
20260506153034 62 352 0.0 3.0 0.00 0.00 0.00 78 1019.1
20260506152520 61 0 1.0 3.0 0.00 0.00 0.00 79 1019.2
20260506152015 60 342 1.0 3.0 0.00 0.00 0.00 80 1019.1
20260506151540 60 9 0.0 3.0 0.00 0.00 0.00 81 1019.2
20260506151015 60 34 0.0 4.0 0.00 0.00 0.00 82 1019.1
20260506150517 59 5 0.0 4.0 0.00 0.00 0.00 84 1019.1
20260506150035 58 334 0.0 3.0 0.00 0.00 0.00 84 1019.0
20260506145517 58 0 0.0 3.0 0.00 0.01 0.00 86 1019.0
20260506145015 57 22 1.0 3.0 0.00 0.01 0.00 87 1019.0
20260506144536 56 30 0.0 2.0 0.00 0.01 0.00 88 1019.0
20260506144015 55 32 0.0 3.0 0.00 0.01 0.00 89 1019.0
20260506143515 55 37 0.0 3.0 0.00 0.01 0.00 90 1019.0
20260506143036 54 0 0.0 2.0 0.00 0.01 0.00 90 1018.9
20260506142515 54 0 0.0 2.0 0.00 0.01 0.00 91 1018.8
20260506142015 54 0 0.0 3.0 0.00 0.01 0.00 91 1018.9
20260506141529 53 0 0.0 3.0 0.00 0.01 0.00 91 1019.0
20260506141012 53 352 0.0 3.0 0.00 0.01 0.00 91 1018.9
20260506140515 53 0 0.0 3.0 0.00 0.01 0.00 92 1018.9
20260506140034 52 0 0.0 3.0 0.00 0.01 0.00 91 1018.8
20260506135514 52 0 0.0 3.0 0.00 0.24 0.00 92 1018.9
20260506135013 52 0 0.0 2.0 0.00 0.24 0.00 92 1018.9
20260506134530 52 0 0.0 1.0 0.00 0.24 0.00 92 1018.7
20260506134016 52 0 0.0 1.0 0.00 0.24 0.00 92 1018.7
20260506133513 52 345 0.0 1.0 0.00 0.24 0.00 92 1018.7
20260506133034 52 0 0.0 0.0 0.00 0.24 0.00 92 1018.6
20260506132515 52 0 0.0 0.0 0.00 0.24 0.00 92 1018.6
20260506132014 52 0 0.0 0.0 0.00 0.24 0.00 91 1018.6
20260506131532 52 0 0.0 0.0 0.00 0.24 0.00 91 1018.6
20260506131018 51 0 0.0 0.0 0.00 0.24 0.00 91 1018.5
20260506130515 51 0 0.0 0.0 0.00 0.24 0.00 91 1018.4
20260506130033 51 0 0.0 0.0 0.00 0.24 0.00 91 1018.5
20260506125515 52 0 0.0 1.0 0.00 0.26 0.00 91 1018.4
20260506125016 52 0 0.0 1.0 0.00 0.26 0.00 91 1018.3
20260506124534 52 0 0.0 2.0 0.00 0.26 0.00 91 1018.4
20260506124013 52 0 0.0 2.0 0.00 0.26 0.00 91 1018.3
20260506123515 52 0 0.0 1.0 0.00 0.26 0.00 91 1018.2
20260506123032 52 0 0.0 0.0 0.00 0.26 0.00 91 1018.2
20260506122515 52 0 0.0 0.0 0.00 0.26 0.00 91 1018.2
20260506122016 52 0 0.0 0.0 0.00 0.26 0.00 91 1018.2
20260506121530 52 0 0.0 0.0 0.00 0.26 0.00 90 1018.1
20260506121011 52 0 0.0 0.0 0.00 0.26 0.00 90 1018.1
20260506120513 53 0 0.0 0.0 0.00 0.26 0.00 90 1018.1
20260506120030 52 0 0.0 0.0 0.00 0.26 0.00 90 1018.1
20260506115511 52 0 0.0 0.0 0.00 0.34 0.00 90 1018.1
20260506115012 53 0 0.0 0.0 0.00 0.34 0.00 90 1018.1
20260506114538 53 0 0.0 0.0 0.00 0.34 0.00 90 1018.1
20260506114013 53 0 0.0 0.0 0.00 0.34 0.00 90 1018.0
20260506113519 53 0 0.0 0.0 0.00 0.34 0.00 90 1018.1
20260506113034 53 0 0.0 0.0 0.00 0.34 0.00 89 1018.0
20260506112519 53 0 0.0 0.0 0.00 0.34 0.00 89 1018.0
20260506112018 53 0 0.0 0.0 0.00 0.34 0.00 89 1018.0
20260506111532 53 0 0.0 0.0 0.00 0.34 0.00 88 1017.9
20260506111015 54 0 0.0 0.0 0.00 0.34 0.00 88 1018.0
20260506110519 54 0 0.0 0.0 0.00 0.34 0.00 89 1018.0
20260506110035 54 0 0.0 0.0 0.00 0.34 0.00 89 1018.0
20260506105519 54 0 0.0 0.0 0.00 0.34 0.00 89 1017.9
20260506105017 53 0 0.0 0.0 0.00 0.34 0.00 89 1017.9
20260506104537 54 0 0.0 0.0 0.00 0.34 0.00 89 1017.9
20260506104015 54 0 0.0 0.0 0.00 0.34 0.00 89 1018.0
20260506103519 54 0 0.0 0.0 0.00 0.34 0.00 89 1017.9
20260506103033 54 0 0.0 0.0 0.00 0.34 0.00 89 1017.9
20260506102515 54 0 0.0 0.0 0.00 0.34 0.00 89 1017.9
20260506102015 54 0 0.0 1.0 0.00 0.34 0.00 89 1017.9
20260506101531 54 0 0.0 1.0 0.00 0.34 0.00 89 1017.8
20260506101015 54 0 0.0 1.0 0.00 0.34 0.00 89 1017.8
20260506100515 54 0 0.0 1.0 0.00 0.34 0.00 89 1017.8
20260506100032 54 0 0.0 1.0 0.00 0.34 0.00 88 1017.7
20260506095515 54 0 0.0 0.0 0.00 0.34 0.00 88 1017.6
20260506095015 54 0 0.0 0.0 0.00 0.34 0.00 88 1017.6
20260506094535 54 0 0.0 0.0 0.00 0.34 0.00 88 1017.6
20260506094016 54 0 0.0 0.0 0.00 0.34 0.00 88 1017.6
20260506093518 55 0 0.0 0.0 0.00 0.34 0.00 88 1017.6
20260506093032 55 0 0.0 0.0 0.00 0.34 0.00 88 1017.6
20260506092520 55 0 0.0 0.0 0.00 0.34 0.00 87 1017.6
20260506092016 55 0 0.0 0.0 0.00 0.34 0.00 87 1017.7
20260506091532 55 0 0.0 0.0 0.00 0.34 0.00 87 1017.7
20260506091013 55 0 0.0 0.0 0.00 0.34 0.00 87 1017.8
20260506090515 55 0 0.0 0.0 0.00 0.34 0.00 87 1017.9
20260506090033 55 0 0.0 0.0 0.00 0.34 0.00 87 1017.9
20260506085515 55 0 0.0 0.0 0.00 0.42 0.00 86 1017.9
20260506085015 56 0 0.0 0.0 0.00 0.42 0.00 86 1018.0
20260506084534 56 0 0.0 0.0 0.00 0.42 0.00 86 1018.0
20260506084015 56 0 0.0 0.0 0.00 0.42 0.00 86 1018.0
20260506083515 56 0 0.0 1.0 0.00 0.42 0.00 86 1018.0
20260506083034 56 0 0.0 1.0 0.00 0.42 0.00 86 1018.2
20260506082515 56 0 0.0 1.0 0.00 0.42 0.00 86 1018.2
20260506082018 56 0 0.0 0.0 0.00 0.42 0.00 85 1018.3
20260506081535 56 0 0.0 0.0 0.00 0.42 0.00 85 1018.3
20260506081019 56 0 0.0 0.0 0.00 0.42 0.00 85 1018.3
20260506080515 56 0 0.0 0.0 0.00 0.42 0.00 85 1018.3
20260506073515 56 0 0.0 0.0 0.00 0.42 0.00 85 1018.6
20260506073035 56 0 0.0 0.0 0.00 0.42 0.00 85 1018.6
20260506072513 56 0 0.0 0.0 0.00 0.42 0.00 84 1018.6
20260506072016 56 0 0.0 1.0 0.00 0.42 0.00 84 1018.6
20260506071536 56 0 0.0 1.0 0.00 0.42 0.00 84 1018.6
20260506071015 56 0 0.0 1.0 0.00 0.42 0.00 84 1018.6
20260506070515 56 0 0.0 0.0 0.00 0.42 0.00 84 1018.6
20260506062515 57 0 0.0 2.0 0.00 0.42 0.42 82 1018.3
20260506062016 57 0 0.0 2.0 0.00 0.42 0.42 82 1018.3
20260506061532 57 0 0.0 0.0 0.00 0.42 0.42 82 1018.3
20260506061018 57 0 0.0 0.0 0.00 0.42 0.42 83 1018.3
20260506060517 57 0 0.0 0.0 0.00 0.42 0.42 83 1018.3
20260506051014 58 0 0.0 1.0 0.00 0.42 0.42 81 1018.2
20260506050516 58 231 0.0 1.0 0.00 0.42 0.42 81 1018.2
20260506045015 58 0 0.0 0.0 0.00 0.42 0.42 80 1017.9
20260506044541 58 0 0.0 1.0 0.00 0.42 0.42 80 1018.0
20260506044014 58 0 0.0 1.0 0.00 0.42 0.42 81 1017.8
20260506043516 58 0 0.0 1.0 0.00 0.42 0.42 80 1017.8
20260506043031 58 0 0.0 0.0 0.00 0.42 0.42 80 1017.7
20260506042517 58 0 0.0 2.0 0.00 0.42 0.42 80 1017.7
20260506042015 58 0 0.0 2.0 0.00 0.42 0.42 80 1017.6
20260506041530 58 0 0.0 1.0 0.00 0.42 0.42 81 1017.6
20260506041014 58 0 0.0 1.0 0.00 0.42 0.42 81 1017.6
20260506040518 58 0 0.0 1.0 0.00 0.42 0.42 80 1017.4
20260506040035 58 0 0.0 1.0 0.00 0.42 0.42 80 1017.5
20260506035519 58 0 0.0 1.0 0.00 0.42 0.42 79 1017.4
20260506035015 58 0 0.0 3.0 0.00 0.42 0.42 80 1017.4
20260506034533 58 0 0.0 3.0 0.00 0.42 0.42 79 1017.3
20260506034015 58 0 0.0 3.0 0.00 0.42 0.42 79 1017.2
20260506033514 58 0 0.0 0.0 0.00 0.42 0.42 79 1017.1
20260506033037 58 0 0.0 1.0 0.00 0.42 0.42 79 1017.0
20260506032515 58 0 0.0 1.0 0.00 0.42 0.42 79 1016.9
20260506032017 57 0 0.0 1.0 0.00 0.42 0.42 79 1016.7
20260506031536 58 0 0.0 2.0 0.00 0.42 0.42 79 1016.8
20260506031015 58 0 0.0 2.0 0.00 0.42 0.42 78 1016.7
20260506030519 58 0 0.0 1.0 0.00 0.42 0.42 78 1016.8
20260506030054 58 0 0.0 1.0 0.00 0.42 0.42 77 1016.7
20260506025514 58 0 0.0 2.0 0.00 0.42 0.42 77 1016.7
20260506025017 59 0 0.0 2.0 0.00 0.42 0.42 76 1016.6
20260506024547 59 0 0.0 1.0 0.00 0.42 0.42 76 1016.5
20260506024014 59 0 0.0 1.0 0.00 0.42 0.42 76 1016.5
20260506023517 59 0 0.0 2.0 0.00 0.42 0.42 75 1016.4
20260506023035 59 0 0.0 2.0 0.00 0.42 0.42 74 1016.3
20260506022515 59 42 0.0 2.0 0.00 0.42 0.42 74 1016.3
20260506022013 59 0 0.0 2.0 0.00 0.42 0.42 74 1016.2
20260506021532 60 0 0.0 2.0 0.00 0.42 0.42 74 1016.3
20260506021017 60 59 0.0 3.0 0.00 0.42 0.42 74 1016.1
20260506020517 60 0 0.0 4.0 0.00 0.42 0.42 74 1016.1
20260506020034 60 61 0.0 4.0 0.00 0.42 0.42 74 1016.1
20260506015517 60 26 0.0 2.0 0.00 0.42 0.42 73 1016.0
20260506015015 60 62 0.0 2.0 0.00 0.42 0.42 73 1015.9
20260506014534 60 17 0.0 3.0 0.00 0.42 0.42 72 1015.9
20260506014014 60 0 0.0 3.0 0.00 0.42 0.42 72 1015.8
20260506013514 61 0 0.0 4.0 0.00 0.42 0.42 71 1015.7
20260506013032 61 51 0.0 4.0 0.00 0.42 0.42 71 1015.7
20260506012514 61 18 0.0 3.0 0.00 0.42 0.42 72 1015.8
20260506012016 61 255 1.0 4.0 0.00 0.42 0.42 71 1015.7
20260506011537 61 0 1.0 4.0 0.00 0.42 0.42 70 1015.6
20260506011018 61 55 1.0 4.0 0.00 0.42 0.42 70 1015.7
20260506010515 62 333 1.0 4.0 0.00 0.42 0.42 71 1015.6
20260506010030 62 28 1.0 4.0 0.00 0.42 0.42 70 1015.6
20260506005516 62 0 1.0 4.0 0.00 0.42 0.42 70 1015.6
20260506005017 62 0 0.0 4.0 0.00 0.42 0.42 69 1015.6
20260506004545 63 0 1.0 7.0 0.00 0.42 0.42 68 1015.6
20260506004015 63 0 0.0 7.0 0.00 0.42 0.42 68 1015.5
20260506003517 64 0 2.0 7.0 0.00 0.42 0.42 66 1015.4
20260506003039 64 0 1.0 5.0 0.00 0.42 0.42 67 1015.5
20260506002516 64 0 1.0 5.0 0.00 0.42 0.42 65 1015.4
20260506002019 64 73 1.0 4.0 0.00 0.42 0.42 65 1015.4
20260506001534 65 34 1.0 5.0 0.00 0.42 0.42 65 1015.4
20260506001016 65 340 1.0 5.0 0.00 0.42 0.42 65 1015.3
20260506000517 65 79 1.0 4.0 0.00 0.42 0.42 64 1015.5
20260506000033 65 12 1.0 5.0 0.00 0.42 0.42 66 1015.4
20260505235516 66 250 0.0 5.0 0.00 0.42 0.42 66 1015.3
20260505235016 66 360 1.0 6.0 0.00 0.42 0.42 65 1015.4
20260505234533 66 17 1.0 6.0 0.00 0.42 0.42 65 1015.4
20260505234016 66 320 1.0 5.0 0.00 0.42 0.42 65 1015.4
20260505233518 66 0 1.0 6.0 0.00 0.42 0.42 66 1015.5
20260505233030 67 225 2.0 6.0 0.00 0.42 0.42 65 1015.5
20260505232516 67 12 1.0 6.0 0.00 0.42 0.42 66 1015.5
20260505232016 66 0 1.0 7.0 0.00 0.42 0.42 66 1015.5
20260505231531 67 94 1.0 7.0 0.00 0.42 0.42 67 1015.5
20260505231015 67 0 1.0 7.0 0.00 0.42 0.42 67 1015.6
20260505230519 67 349 1.0 7.0 0.00 0.42 0.42 65 1015.7
20260505230044 66 300 2.0 7.0 0.00 0.42 0.42 63 1015.6
20260505225516 67 345 2.0 9.0 0.00 0.42 0.42 63 1015.8
20260505225033 67 76 1.0 9.0 0.00 0.42 0.42 64 1015.8
20260505224536 67 352 1.0 4.0 0.00 0.42 0.42 67 1015.8
20260505224015 68 281 1.0 8.0 0.00 0.42 0.42 63 1015.9
20260505223515 67 75 1.0 8.0 0.00 0.42 0.42 62 1015.9
20260505223033 67 309 2.0 8.0 0.00 0.42 0.42 60 1016.0
20260505222519 67 329 2.0 6.0 0.00 0.42 0.42 62 1016.0
20260505222013 67 332 2.0 6.0 0.00 0.42 0.42 62 1016.0
20260505221530 68 215 2.0 8.0 0.00 0.42 0.42 63 1016.1
20260505221016 67 333 2.0 9.0 0.00 0.42 0.42 61 1016.1
20260505220515 67 76 2.0 9.0 0.00 0.42 0.42 61 1016.2
20260505220041 67 49 1.0 8.0 0.00 0.42 0.42 63 1016.2
20260505215516 68 53 2.0 8.0 0.00 0.42 0.42 62 1016.2
20260505215020 69 114 1.0 6.0 0.00 0.42 0.42 60 1016.2
20260505214535 69 0 1.0 6.0 0.00 0.42 0.42 61 1016.2
20260505214016 68 5 2.0 6.0 0.00 0.42 0.42 61 1016.3
20260505213520 68 348 2.0 9.0 0.00 0.42 0.42 63 1016.2
20260505213036 69 327 2.0 9.0 0.00 0.42 0.42 61 1016.3
20260505212515 69 289 2.0 9.0 0.00 0.42 0.42 61 1016.4
20260505212016 69 105 1.0 7.0 0.00 0.42 0.42 60 1016.6
20260505211536 68 238 2.0 7.0 0.00 0.42 0.42 63 1016.5
20260505211016 69 298 1.0 6.0 0.00 0.42 0.42 61 1016.5
20260505210518 69 107 2.0 6.0 0.00 0.42 0.42 63 1016.5
20260505210032 69 186 2.0 5.0 0.00 0.42 0.42 66 1016.5
20260505205520 68 49 2.0 9.0 0.00 0.42 0.42 64 1016.6
20260505205016 68 41 3.0 9.0 0.00 0.42 0.42 61 1016.7
20260505204534 70 138 1.0 6.0 0.00 0.42 0.42 64 1016.6
20260505204017 67 69 2.0 6.0 0.00 0.42 0.42 64 1016.7
20260505203514 69 53 1.0 6.0 0.00 0.42 0.42 65 1016.6
20260505203034 69 172 2.0 6.0 0.00 0.42 0.42 63 1016.7
20260505202516 69 36 1.0 8.0 0.00 0.42 0.42 63 1016.7
20260505202016 68 24 2.0 8.0 0.00 0.42 0.42 65 1016.7
20260505201536 68 71 1.0 8.0 0.00 0.42 0.42 63 1016.7
20260505201015 68 19 1.0 8.0 0.00 0.42 0.42 65 1016.6
20260505200517 68 321 3.0 7.0 0.00 0.42 0.42 66 1016.6
20260505200032 68 347 1.0 7.0 0.00 0.42 0.42 64 1016.6
20260505195519 68 11 2.0 8.0 0.00 0.42 0.42 65 1016.6
20260505195016 68 22 2.0 8.0 0.00 0.42 0.42 61 1016.6
20260505194534 69 5 2.0 9.0 0.00 0.42 0.42 67 1016.7
20260505194016 68 72 1.0 9.0 0.00 0.42 0.42 64 1016.6
20260505193520 69 345 1.0 8.0 0.00 0.42 0.42 66 1016.8
20260505193038 69 51 1.0 8.0 0.00 0.42 0.42 66 1016.7
20260505192516 68 325 1.0 9.0 0.00 0.42 0.42 67 1016.8
20260505192017 67 0 1.0 9.0 0.00 0.42 0.42 68 1016.8
20260505191539 68 26 2.0 8.0 0.00 0.42 0.42 70 1016.9
20260505191016 68 35 1.0 5.0 0.00 0.42 0.42 66 1016.8
20260505190515 68 5 1.0 5.0 0.00 0.42 0.42 72 1016.7
20260505190039 69 28 1.0 5.0 0.00 0.42 0.42 68 1016.7